Regional Weather Roundup
Issued by NWS

Home | Current Version | Previous Version | Text Only | Print | Product List | Glossary On
Versions: 1 2 3 4 5 6 7 8 9 10 11 12 13 14 15 16 17 18 19 20 21 22 23 24 25 26 27 28 29 30 31 32 33 34 35 36 37 38 39 40 41 42 43 44 45 46 47 48 49 50
000
ASUS43 KMPX 262301
RWRMN
WEATHER ROUNDUP FOR MINNESOTA
NATIONAL WEATHER SERVICE TWIN CITIES/CHANHASSEN MN
500 PM CST MON JAN 26 2015


NOTE: "FAIR" INDICATES FEW OR NO CLOUDS BELOW 12,000 FEET WITH NO
SIGNIFICANT WEATHER AND/OR OBSTRUCTIONS TO VISIBILITY. N/A MEANS
CURRENT SKY AND/OR WEATHER CONDITIONS ARE NOT AVAILABLE.

MNZ060>063-068>070-270000-
   Twin Cities Metro

CITY           SKY/WX    TMP DP  RH WIND       PRES   REMARKS
TWIN CITIES    CLOUDY    41  32  70 W14       29.82R
ST PAUL        CLOUDY    41  32  70 W13       29.82R
CRYSTAL        CLOUDY    41  33  73 W9        29.80R
BLAINE         CLOUDY    43  34  70 W8        29.81R
LAKEVILLE      CLOUDY    37  34  87 NW13      29.81R
EDEN PRAIRIE   CLOUDY    41  32  70 NW15      29.81R
SOUTH ST PAUL  CLOUDY    42  32  68 NW9       29.80R
LAKE ELMO      CLOUDY    41  32  70 NW8       29.81R
$$
MNZ001>005-007-008-013>017-022>024-027-028-270000-
   Northwest Minnesota

CITY           SKY/WX    TMP DP  RH WIND       PRES   REMARKS
BEMIDJI        CLOUDY    31  26  83 NW12      29.85R WCI  22
HALLOCK        CLOUDY    28  25  86 N12       29.95R WCI  18
ROSEAU         CLOUDY    28  23  80 NW10      29.91R WCI  19
WARROAD        CLOUDY    28  23  80 NW9       29.90R WCI  20
THIEF RVR FALL CLOUDY    28  25  86 N13       29.92R WCI  18
CROOKSTON      CLOUDY    28  25  86 N16       29.96R WCI  17
FOSSTON        CLOUDY    28  25  86 NW13      29.91R WCI  18
DETROIT LAKES  CLOUDY    30  28  93 N18       29.90R WCI  18
MOORHEAD       MOCLDY    34  32  93 N13       29.96R WCI  25
PARK RAPIDS    CLOUDY    33  28  81 N17       29.84R WCI  22
MAHNOMEN       CLOUDY    29  27  90 NW14      29.90R WCI  19
$$
MNZ006-009>011-018-025>026-270000-
   North Central Minnesota

CITY           SKY/WX    TMP DP  RH WIND       PRES   REMARKS
BAUDETTE       CLOUDY    28  21  75 N14       29.87R WCI  17
FLAG ISLAND    CLOUDY    27  21  80 NW15      29.88R WCI  15
INTL FALLS     CLOUDY    28  23  81 NW9       29.84R WCI  19
WASKISH        CLOUDY    28  25  86 N8        29.87R WCI  20
BIG FORK       CLOUDY    30  25  80 NW5       29.83R WCI  25
LONGVILLE      CLOUDY    34  28  80 NW8G20    29.83R WCI  27
GRAND RAPIDS   CLOUDY    34  27  75 N17G23    29.81R WCI  23
CRANE LAKE     CLOUDY    25  23  93 CALM      29.84R
ORR            CLOUDY    27  23  86 NW8       29.80R WCI  18
COOK           CLOUDY    27  25  93 NW8       29.81R WCI  18
WALKER         CLOUDY    32  28  83 NW7       29.83R WCI  26
$$
MNZ012-019>021-037-270000-
   Northeast Minnesota

CITY           SKY/WX    TMP DP  RH WIND       PRES   REMARKS
DULUTH         CLOUDY    31  27  85 N8        29.76R WCI  23
ELY            CLOUDY    25  25 100 N3        29.78R
HIBBING        CLOUDY    31  25  78 N15       29.79R WCI  20
EVELETH        CLOUDY    30  28  93 CALM      29.80R
DULUTH HARBOR  CLOUDY    28  27  93 CALM      29.81R
TWO HARBORS    CLOUDY    28  25  86 CALM      29.76R HAZE
SILVER BAY     CLOUDY    27  23  86 CALM      29.77R
GRAND MARAIS     N/A     26  23  88 NE3       29.82R
G MARAIS ARPRT LGT SNOW  19  16  86 N3        29.75R
$$
MNZ029>031-032-039>041-046>048-054>057-064-270000-
   West Central Minnesota

CITY           SKY/WX    TMP DP  RH WIND       PRES   REMARKS
FERGUS FALLS   CLOUDY    34  28  80 N12       29.93R WCI  25
WHEATON        PTCLDY    37  30  75 NW12      29.94R
MORRIS         PTCLDY    37  34  87 NW14      29.89R
ALEXANDRIA     CLOUDY    35  29  78 NW23G31   29.88R WCI  23
ELBOW LAKE     MOCLDY    34  31  89 N13G20    29.90R WCI  25
WADENA         CLOUDY    32  27  80 NW14G24   29.86R WCI  22
GLENWOOD       PTCLDY    36  30  80 NW17G23   29.87R
APPLETON       CLOUDY    41  34  75 NW13      29.91R
BENSON         PTCLDY    39  32  75 N12       29.89R
ORTONVILLE     MOCLDY    41  32  70 NW14      29.91R
MADISON        MOCLDY    45  36  70 NW13      29.91R
WILLMAR        MOCLDY    39  32  75 NW14      29.88R
$$
MNZ033>034-036-042>043-049>051-058-059-270000-
   Central Minnesota

CITY           SKY/WX    TMP DP  RH WIND       PRES   REMARKS
ST CLOUD       CLOUDY    39  28  64 NW17G25   29.82R
SAUK CENTRE    CLOUDY    35  29  80 NW18G28   29.86R WCI  24
PAYNESVILLE    CLOUDY    35  31  85 W12G17    29.86R WCI  27
AITKIN         CLOUDY    37  30  75 NW9       29.80R
PINE RIVER     CLOUDY    36  28  75 NW10      29.87R
BRAINERD       CLOUDY    36  28  73 NW14      29.82R
STAPLES        CLOUDY    36  28  75 NW14      29.84R
LONG PRAIRIE   CLOUDY    32  28  86 NW14G23   29.85R WCI  22
LITTLE FALLS   CLOUDY    37  28  70 NW9       29.84R
LITCHFIELD     CLOUDY    39  34  81 NW12G18   29.86R
BUFFALO        CLOUDY    40  31  70 W13       29.84R
MAPLE LAKE     CLOUDY    40  32  74 NW10      29.84R
$$
MNZ037-044-045-052-053-270000-
   East Central Minnesota

CITY           SKY/WX    TMP DP  RH WIND       PRES   REMARKS
PRINCETON      CLOUDY    41  30  65 NW9G16    29.82R
MORA           CLOUDY    37  28  70 NW12G18   29.81R
CAMBRIDGE      CLOUDY    43  30  61 NW9       29.79R
RUSH CITY      CLOUDY    38  31  74 NW5       29.80R
MOOSE LAKE     CLOUDY    36  30  80 NW9       29.77R
HINCKLEY       CLOUDY    37  32  81 NW6       29.79R
CLOQUET        FLURRIES  34  30  86 N9        29.77R WCI  26
MCGREGOR       CLOUDY    34  32  93 NW12      29.80R WCI  25
$$
MNZ071>073-080-081-089-090-097-098-270000-
   Southwest Minnesota

CITY           SKY/WX    TMP DP  RH WIND       PRES   REMARKS
MONTEVIDEO     MOCLDY    39  36  87 N9G18     29.91R
GRANITE FALLS  CLOUDY    40  34  78 NW14G20   29.91R
CANBY          CLOUDY    42  34  73 NW13G21   29.93R
MARSHALL       MOCLDY    41  32  70 N15       29.92R
REDWOOD FALLS  CLOUDY    41  33  73 NW13G22   29.89R
OLIVIA         CLOUDY    37  32  81 NW10      29.88R
PIPESTONE      CLEAR     41  36  81 NW16      29.91R
WINDOM         MOCLDY    39  36  87 NW12      29.89R
WORTHINGTON    CLEAR     41  32  70 NW17G23   29.91R
JACKSON        CLOUDY    41  34  75 NW15G21   29.88R
TRACY          MOCLDY    40  35  80 NW13      29.90R
SLAYTON        CLEAR     39  33  77 NW17      29.91R
$$
MNZ065>067-074>077-082>085-091>093-270000-
   South Central Minnesota

CITY           SKY/WX    TMP DP  RH WIND       PRES   REMARKS
MANKATO        PTCLDY    39  34  81 NW18      29.85R
NEW ULM        CLOUDY    39  32  75 NW18G29   29.87R
ST JAMES       CLOUDY    43  36  75 NW17G25   29.88R
FAIRMONT       CLOUDY    43  32  65 NW15      29.86R
GLENCOE        CLOUDY    40  34  80 NW13G18   29.84R
FARIBAULT      CLOUDY    39  36  87 W10       29.83R
OWATONNA       MOCLDY    39  34  81 W12       29.82R
WASECA         MOCLDY    39  34  81 NW16      29.85R
ALBERT LEA     MOCLDY    41  37  87 NW10G16   29.82R
$$
MNZ078>079-086>088-094>096-270000-
   Southeast Minnesota

CITY           SKY/WX    TMP DP  RH WIND       PRES   REMARKS
ROCHESTER      CLOUDY    37  32  82 NW15      29.79R
RED WING       CLOUDY    39  32  75 CALM      29.79R
STANTON        CLOUDY    40  33  77 NW10      29.80R
DODGE CENTER   CLOUDY    39  36  87 NW10G17   29.80R
WINONA         CLOUDY    30  28  93 SE3       29.81R
AUSTIN         MOCLDY    39  34  81 NW12      29.80R
PRESTON        MOCLDY    36  32  85 NW10      29.79R
$$
ABBREVIATIONS USED IN REMARKS
   TC - TEMPERATURES IN CELSIUS
  WCI - WIND CHILL INDEX
   HX - HEAT INDEX
  VSB - VISIBILITY
$$



USA.gov is the U.S. government's official web portal to all federal, state and local government web resources and services.